Retour au catalogue

BRO-18

ActifScienceSSO
NORAD 64550·PAYLOAD·🇫🇷 France

Lancé Jun 23, 2025 depuis Vandenberg Space Force Base

Loading…

Prochains Passages (prochaines 24 heures)

TLE

FraisSource: Space-Track

Époque: Sep 14, 2026, 13:58 UTC

1 64550U 25135Y   26257.58245855  .00002921  00000-0  12887-3 0  9993
2 64550  97.4704  11.9862 0000614  67.5862 292.5439 15.22565731 68471

Suivez BRO-18 en temps réel avec AllMySat

Download on the App Store